Location: St. Louis
(38.6270°N, 90.1994°W)
Time: 01:46:27
(UTC-06:00)

Courier 1B Rocket - Pass Details

Date: 09 December 2021
Orbit: 920 x 1202 km, 28.2° (Epoch: 16 January)

Event Time Altitude Azimuth Distance (km) Brightness Sun altitude
Rises 22:02:48 0° 252° (WSW) 3,795 - -61.7°
Reaches altitude 10° 22:05:51 10° 243° (WSW) 2,795 - -62.2°
Maximum altitude 22:11:46 33° 182° (S) 1,562 - -63.2°
Drops below altitude 10° 22:17:24 10° 120° (ESE) 2,648 - -64.2°
Sets 22:20:12 0° 110° (ESE) 3,570 - -64.7°
